Погода в Анадыре

Погода в Анадыре : погода сейчас, прогноз погоды и архив. Всё, что Вы хотите узнать о погоде в Анадыре!

Хотите узнать прогноз погоды в Анадыре? Тогда Вам сюда: Погода в Анадыре

Поиск расширенной информации на нашем сайте:

Другие новости

Новости СМИ2

Главная страница сайта

Новости сайта

03.07.2017

Напоминаем, что на нашем специализированном сайте Метеоцентр.Азия вы можете получить высокодетализированные автоматические прогнозы погоды по пунктам России, СНГ и мира в авиационном формате (включающие направление и скорость ветра, видимость, явления погоды, количество и форму облачности, нижнюю и верхнюю границу облачности).


Погода в Анадыре - сегодня

Время (UTC), дата Ветер
(°,м/с) 
Видим.   Явления Облачность Т
(°С)
Тd
(°С)
f(%) Тe
(°С)
Pmin
(гПа)
dP
(гПа)
Po
(мм)
O2
(г/м3)
Тmin Tmax R s Состояние
почвы
09 26.07.17 140 (ЮВ) 9{12}  20000 м    6/4 600 м верхняя 
[Cu hum|Ci fib]
+11.5 +8.5 82 +10  1016.9  0.3  757  291           
12 26.07.17 140 (ЮВ) 9{12}  50000 м    4/0 верхняя 
[Ci ing]
+10.4 +6.4 76 +8  1016.5  -0.6  757  293           
15 26.07.17 110 (В) 9{12}  20000 м    8/1 600 м верхняя 
[Cu hum|Ci fib]
+10.3 +7 80 +8  1015.2  -1.3  756  292           
18 26.07.17 090 (В) 9{12}  20000 м    8/4 300 м кучево-дожд., средняя, верхняя 
[Cb cap|Ac trans|Ci fib]
+11.2 +9 86 +9  1014.1  -0.9  755  291  +9.3        сухая 
21 26.07.17 140 (ЮВ) 12{15}  20000 м    9/3 600 м кучево-дожд., средняя, верхняя 
[Cb cap|Ac trans|Ci fib]
+13.8 +10.4 80 +14  1012.5  -1.6  754  287           
00 27.07.17 140 (ЮВ) 19{23}  8000 м  туман на расстоянии  10/10 300 м кучево-дожд. 
[Cb cap]
+13.2 +11.3 88 +13  1010.3  -2.2  752  287           
03 27.07.17 140 (ЮВ) 19{23}  7000 м  туман на расстоянии  10/10 300 м кучево-дожд. 
[Cb cap]
+12.3 +11 92 +12  1007.1  -3.2  750  287           
06 27.07.17 110 (В) 19{23}  11000 м  слаб. ливневой дождь  10/10 300 м кучево-дожд. 
[Cb cap]
+12 +11.2 95 +12  1003.8  -3.3  747  286    +14.9  0.0     
09 27.07.17 140 (ЮВ) 15{19}  6000 м  ливневой дождь  10/10 300 м кучево-дожд. 
[Cb cap]
+11.5 +11.3 99 +12  999.9  -3.8  745  286           
12 27.07.17 180 (Ю) 12{15}  5000 м  ливневой дождь  10/10 600 м кучево-дожд. 
[Cb cap]
+12.4 +12.2 99 +14  997.1  -2.8  742  284           
15 27.07.17 320 (СЗ) 9{12}  5000 м  ливневой дождь  10/10 300 м кучево-дожд. 
[Cb cap]
+11.8 +11.4 97 +13  996.3  -0.8  742  284           
18 27.07.17 270 (З) 9{12}  5000 м  ливневой дождь  10/10 300 м кучево-дожд. 
[Cb cap]
+10.9 +10.7 99 +11  997.8  1.4  743  286  +10.7    21    влажная 
21 27.07.17 270 (З) 9{12}  20000 м  в посл. час ливневой дождь  10/10 300 м кучево-дожд. 
[Cb cap]
+12.2 +11.9 98 +14  998.6  0.9  744  284           
00 28.07.17 290 (З) 9{12}  9000 м  туман на расстоянии{ливн. осадки}  10/10 200 м кучево-дожд. 
[Cb cap]
+14.4 +13.7 96 +20  998.4  -0.2  743  282           
03 28.07.17 270 (З) 12{15}  35000 м  {ливн. осадки}  10/10 300 м кучево-дожд. 
[Cb cap]
+15.2 +13.2 88 +20  998.7  0.3  744  281           
06 28.07.17 270 (З) 12{12}  20000 м  {ливн. осадки}  10/10 300 м кучево-дожд. 
[Cb cap]
+15.4 +13.2 87 +20  998.2  -0.5  743  281    +15.6     
09 28.07.17 270 (З) 9{15}  20000 м    9/8 600 м кучево-дожд., средняя, верхняя 
[Cb cap|Ac lent|Ci fib]
+15.7 +12.8 83 +20  998.6  0.4  744  281           
12 28.07.17 270 (З) 9{12}  50000 м    9/8 300 м кучево-дожд., средняя 
[Cb cap|Ac trans]
+15.2 +13 87 +20  998.6  744  281           
15 28.07.17 270 (З) 12{15}  20000 м    8/4 300 м средняя 
[Sc|Ac trans]
+14.7 +13 90 +19  998.6  744  282           
18 28.07.17 270 (З) 12{15}  20000 м    3/3 300 м средняя 
[Sc|Ac trans]
+14.9 +12.7 87 +18  999.3  0.7  744  282  +14.4        влажная 
21 28.07.17 270 (З) 9{15}  20000 м    3/1 600 м средняя 
[Sc|Ac trans]
+17.1 +12.8 76 +21  999.9  0.7  745  280           
00 29.07.17 270 (З) 7{09}  20000 м    3/3 600 м 
[Cu hum]
+18.7 +12.4 67 +24  1000.8  0.9  745  279           
03 29.07.17 270 (З) 9{12}  20000 м    1/1 600 м 
[Cu hum]
+20.4 +11 55 +23  1000.5  -0.3  745  277           
06 29.07.17 270 (З) 7{09}  20000 м    3/1 600 м верхняя 
[Cu hum|Ci fib]
+19.9 +12.6 63 +25  1001.2  0.7  746  278    +20.8       
09 29.07.17 230 (ЮЗ) 7{09}  20000 м    5/3 600 м верхняя 
[Sc diur, vesp|Ci fib]
+17.4 +14.1 81 +24  1002.9  1.7  747  280           
Время (UTC), дата Ветер
(°,м/с) 
Видим.   Явления Облачность Т
(°С)
Тd
(°С)
f(%) Тe
(°С)
Pmin
(гПа)
dP
(гПа)
Po
(мм)
O2
(г/м3)
Тmin Tmax R s Состояние
почвы

Для получения пояснительной информации подведите курсор к названию столбца.

ПОГОДА в Анадыре - архив

Всё, что Вы хотите узнать о погоде в Анадыре - удобно и подробно!

Выберите нужную дату (начиная с 1 января 2015* года) и нажмите кнопку "Найти".
Будут отображены архивные сводки погоды по пункту Анадырь, начиная с указанной даты.


Отображать данные в формате CSV (для использования в таблицах Excel)


Внимание! Наш архив погоды предназначен исключительно для личного некоммерческого использования в познавательных целях. Если Вам необходимы официальные справки о состоянии погоды (для производственных, юридических, коммерческих и т.п. целей), обращайтесь в органы Росгидромета.

*Примечание: данная дата относится к архиву по метеостанциям СССР (Россия, СНГ, Балтия).
Архив по метеостанциям Зарубежной Европы и Азии (кроме Китая) хранится 10 дней, по другим регионам земного шара (Китай, Африка, Америка, Австралия, Океания) - 1 день.

Анадырь - район местоположения метеостанции


Название, широта, долгота, высота метеостанции:
Анадырь (город) 64.8°ш. 177.6°д. 61 м над ур. моря [Российская Федерация]

Дополнительная информация

В oтличие oт бoльшинства пoгoдных сайтoв мы публикуем пoдрoбную метеoинфoрмацию в детальнoм прoфессиoнальнoм фoрмате.

Характеристики температуры и влажнoсти вoздуха измеряются на высoте 2 м в тени вдали oт зданий и деревьев.
Скoрoсть ветра измеряется на высoте 10 м (на урoвне рoста челoвека скoрoсть ветра ниже в 1.5-2 раза). Если метеoстанция нахoдится в гoрoде или в лесу, тo скoрoсть ветра занижена на 2-4 м/с пo сравнению с oткрытым местoм. Скoрoсть ветра над акватoриями крупных рек и oзёр, а также на вершинах хoлмoв на 2-5 м/с выше, чем в oбычных услoвиях.
Атмoсфернoе давление в разных тoчках местнoсти мoжет значительнo oтличаться oт давления на метеoстанции, в зависимoсти oт услoвий рельефа (при пoдъёме на 10 м давление пoнижается примернo на 1 мм рт.ст.).